sat.trackr.live / text

‹ back to catalog

STARLINK-30197

NORAD 57443 · 2023-105P

PAYLOAD ACTIVE UNKNOWN

§ Identity

Operator
Country
US
Launch date
2023-07-24
Launch site
AFETR
Launch vehicle
Mass (kg)
RCS (m²)

Purposes: comms

External: N2YO · Heavens-Above · Gunter

§ Orbital elements

Epoch: 2026-05-25T03:04:23.188224Z

Period
94.27 min
Inclination
43.0003°
Eccentricity
0.0001267
Mean motion
15.27579310 rev/d
Perigee alt
482.2 km
Apogee alt
483.9 km
Semi-major
6,861.2 km
B*
4.7404e-5
RAAN
188.0315°
Arg perigee
264.7239°
Mean anomaly
95.3468°
Rev number
15,727

§ Raw data

STARLINK-301971 57443U 23105P   26145.12804616  .00001043  00000+0  47404-4 0  99902 57443  43.0003 188.0315 0001267 264.7239  95.3468 15.27579310157277

JSON: /api/v1/satellites/57443 · /tle

For live sub-satellite position, see the globe view (requires WebGL).

§ Visibility from observer

Set your observer location to see the next 7 days of passes ≥ 10°. The values pass through the URL so the page stays shareable.

No JS? Fill the form by hand. The geolocation button needs JavaScript.